www.pogodaiklimat.ru

Погода и климат >> Архив погоды >> Непал >> Дхангадхи


ПОГОДА в Дхангадхи

  • Прогноз погоды в Дхангадхи
  • Монитор погоды в Дхангадхи

АРХИВ ПОГОДЫ в Дхангадхи

Время (UTC), дата Ветер
(напр.,м/с)
 
Видим.   Явления Облачность Т
(С)
Тd
(С)
f
(%)
Тe
(С)
Тes
(С)
Комфортность P
(гПа)
Po
(гПа)
Тmin
(С)
Tmax
(С)
R
(мм)
R24
(мм)
S
(см)
00 13.06 В 2 6000 м 5/3 600 м
[Cu Sc Ac trans]
+27.8 +23.7 78 +38 +38 очень
душно
996.1 977.0
03 13.06 ЮВ 2 6000 м 3 балла +32.6 +23.6 59 +44 +50 опасность
перегрева
999.1 979.9 +26.0
06 13.06 Ю 1 6000 м ясно +35.8 +21.9 45 +44 +69 опасность
перегрева
998.4 979.2
12 13.06 З 1 6000 м 1 балл +36.6 +22.3 44 +45 +48 опасность
перегрева
993.4 974.5 +40.3
00 14.06 штиль 0 6000 м ясно +27.6 +24.3 82 +39 +39 очень
душно
995.4 976.5
06 14.06 З 1 5000 м мгла ясно +38.6 +23.5 42 +49 +74 опасность
перегрева
994.6 975.5
09 14.06 З 2 5000 м мгла {туман} ясно +41.4 +16.5 24 +44 +61 опасность
перегрева
992.7 973.9
12 14.06 З 2 5000 м мгла {туман} ясно +40.3 +15.8 24 +42 +44 опасность
перегрева
991.3 972.5 +42.3
00 15.06 штиль 0 8000 м 4/3 600 м
[Sc diur, vesp Cs]
+12.8 +11.4 91 +12 +12 763.9
03 15.06 штиль 0 5000 м мгла ясно +33.2 +22.2 53 +42 +55 опасность
перегрева
994.8 975.7 +26.0
06 15.06 штиль 0 5000 м мгла {туман} ясно +38.8 +18.2 30 +42 +71 опасность
перегрева
993.8 974.7
09 15.06 З 2 5000 м мгла {туман} ясно +41.6 +14.6 21 +42 +60 опасность
перегрева
992.6 973.7
12 15.06 З 2 5000 м мгла {туман} ясно +40.0 +14.4 22 +41 +43 опасность
перегрева
990.2 971.3 +42.5
00 16.06 штиль 0 5000 м мгла 6/4 600 м
[Cu Sc Ac und]
+26.6 +21.1 72 +34 +34 очень
душно
993.2 974.3
03 16.06 З 1 5000 м мгла {туман} 5/3 600 м
[Cu Sc Ac trans]
+30.8 +21.2 57 +39 +45 очень
душно
994.5 975.5 +26.5
06 16.06 З 1 5000 м мгла {туман} 4/1 600 м
[Cu hum Ac und]
+38.8 +19.0 32 +43 +61 опасность
перегрева
995.3 976.3
09 16.06 З 2 5000 м мгла {туман} 4/1 600 м
[Cu hum Ac und Ci fib]
+39.4 +18.9 30 +43 +56 опасность
перегрева
993.2 974.3
12 16.06 З 2 5000 м мгла {туман} 8/0 600 м
[Ac und Ci sp]
+34.4 +19.2 41 +40 +41 очень
душно
992.4 973.5 +40.1
00 17.06 штиль 0 6000 м 1 балл +25.2 +21.7 81 +32 +32 очень
душно
994.4 975.5
03 17.06 штиль 0 5000 м мгла ясно +29.4 +21.6 63 +37 +50 очень
душно
995.6 976.5 +25.5
06 17.06 штиль 0 5000 м мгла {туман} ясно +34.4 +21.3 47 +42 +71 опасность
перегрева
998.0 978.9
09 17.06 З 2 5000 м мгла {туман} 6/4 600 м
[Cu Sc Ac und Ci sp]
+37.2 +23.0 44 +47 +55 опасность
перегрева
994.9 975.7
03 18.06 В 1 6000 м 10/8 300 м
[St As op]
+28.0 +23.4 76 +38 +38 очень
душно
996.5 977.3 +25.4 0.0
06 18.06 штиль 0 5000 м мгла 8/5 300 м
[St As trans]
+31.6 +22.7 59 +41 +50 опасность
перегрева
998.3 979.1
09 18.06 З 1 5000 м мгла {туман} 4/3 600 м
[Cu hum Ac trans Ci fib]
+37.0 +20.9 39 +44 +56 опасность
перегрева
995.7 976.5
12 18.06 З 1 5000 м мгла {туман} 4/1 600 м
[Cu hum Ac und Ci fib]
+35.3 +18.2 36 +39 +41 очень
душно
994.3 975.1 +37.5
00 19.06 штиль 0 6000 м 5/3 600 м
[Cu Sc Ac und]
+24.4 +21.0 81 +31 +31 очень
душно
997.1 977.9
03 19.06 штиль 0 6000 м 8/5 300 м
[St Ac und]
+28.8 +22.2 68 +38 +41 очень
душно
998.5 979.3 +24.4
06 19.06 ЮВ 1 5000 м мгла 8/1 600 м
[Cu hum Ac und]
+34.4 +19.5 42 +40 +50 очень
душно
998.3 979.1
09 19.06 Ю 1 6000 м 8/5 300 м
[St As trans]
+33.6 +21.0 48 +41 +47 опасность
перегрева
998.0 978.7
12 19.06 штиль 0 6000 м 8/5 600 м
[St As trans]
+30.7 +21.6 58 +39 +40 очень
душно
996.8 977.5 +35.8

 

Местоположение метеостанции Дхангадхи (Непал): широта 28.80 долгота 80.55 высота над уровнем моря 187 м.

В архиве по умолчанию представлена погода в Дхангадхи за последнюю неделю. Архивные данные за месяц целиком и за предыдущие месяцы, начиная с января 2011 года, Вы можете получить, выбрав интересующий диапазон дат из раскрывающегося списка и нажав кнопку "Ввод!".


*Определитесь, кто Вы:
робот инопланетянин человек

Внимание! Время в таблицах - всемирное. Для получения местного времени необходимо прибавить поправку, которая равна 5.5 ч.

Смотрите также архив погоды в соседних городах и на ближайших метеорологических станциях:

Погода в Даделдхуре (Непал) (56 км)
Погода в Дипаял-Силгадхи (Непал) (63 км)
Погода в Суркхете (Непал) (107 км)
Погода в Пантнагаре (Уттаракханд, Индия) (107 км)
Погода в Мектешваре (Уттаракханд, Индия) (115 км)
Погода в Барели (Уттар-Прадеш, Индия) (122 км)
Погода в Непалгандже (Непал) (134 км)
Погода в Орае (Уттар-Прадеш, Индия) (166 км)
Погода в Джумле (Непал) (166 км)
Погода в Бахрайче (Уттар-Прадеш, Индия) (171 км)

Пояснения к столбцам:

Ветер - указаны скорость ветра в м/с - средняя за 10 мин, порывы в срок и между сроками (в фигурных скобках) и направление, откуда дует ветер: С - северный, СВ - северо-восточный, В - восточный, ЮВ - юго-восточный, Ю - южный, ЮЗ - юго-западный, З - западный, СЗ - северо-западный.
Видимость - горизонтальная дальность видимости в метрах или километрах. При видимости от 1 до 10 км при отсутствии осадков обычно наблюдается дымка, при ухудшении видимости до 1 км и менее - туман. В сухую погоду видимость может ухудшаться дымом, пылью или мглою.
Явления - указаны атмосферные явления, наблюдавшиеся в срок или в последний час перед сроком; фигурными скобками обозначены явления, наблюдавшиеся между сроками (за 1-3 часа до срока); квадратными скобками обозначены град или гололедные отложения с указанием их диаметра в мм.
Облачность - указаны через наклонную черту общая и нижняя облачность в баллах и высота нижней границы облаков в метрах; квадратными скобками обозначены формы облаков: Ci - перистые, Cs - перисто-слоистые, Cc - перисто-кучевые, Ac - высококучевые, As - высокослоистые, Sc - слоисто-кучевые, Ns - слоисто-дождевые, Cu - кучевые, Cb - кучево-дождевые. Подробнее классификацию облаков см. в Атласе облаков (PDF).
T - Температура воздуха - температура, измеренная на высоте 2 м над землей.
Td - Температура точки росы - температура, при понижении до которой содержащийся в воздухе водяной пар достигнет насыщения.
f - Относительная влажность воздуха - влажноcть воздуха, измеренная на высоте 2 м над землей.
Te - Эффективная температура - температура, которую ощущает одетый по сезону человек в тени. Характеристика душности погоды. При расчете учитывается влияние влажности воздуха и скорости ветра на теплоощущения человека.
Tes - Эффективная температура на солнце - температура, которую ощущает человек, с поправкой на солнечный нагрев. Характеристика знойности погоды. Зависит от высоты солнца над горизонтом, облачности и скорости ветра. Ночью, в пасмурную погоду, а также при ветре 12 м/с и более поправка равна нулю.
P - Атмосферное давление - приведенное к уровню моря атмосферное давление.
Po - Атмосферное давление - измеренное на уровне метеостанции атмосферное давление.
Tmin - Минимальная температура - минимум температуры воздуха на высоте 2 м над землей.
Tmax - Максимальная температура - максимум температуры воздуха на высоте 2 м над землей.
R - Количество осадков - Количество выпавших осадков за период времени, мм. При наведении курсора мыши на число - период времени, за который выпало указанное количество осадков.
R24 - Количество осадков - Количество выпавших осадков за 24 часа, мм.
S - Снежный покров - Высота снежного покрова, см. При наведении курсора мыши на число - состояние снежного покрова и степень покрытия местности в баллах.